www.pogodaiklimat.ru

Погода и климат >> Архив погоды >> Новая Зеландия >> Хокитика


ПОГОДА в Хокитике

  • Прогноз погоды в Хокитике
  • Монитор погоды в Хокитике

АРХИВ ПОГОДЫ в Хокитике

Время (UTC), дата Ветер
(напр.,м/с)
 
Видим.   Явления Облачность Т
(С)
Тd
(С)
f
(%)
Тe
(С)
Тes
(С)
Комфортность P
(гПа)
Po
(гПа)
Тmin
(С)
Tmax
(С)
R
(мм)
R24
(мм)
S
(см)
12 10.07 ЮЗ 1 2000 м н/о +9.9 +8.2 89 +9 +9 1011.0 1005.3 +11.3 2
15 10.07 З 4 10 км н/о +10.7 +8.7 87 +8 +8 1010.9 1005.2
18 10.07 З 4 10 км н/о +11.0 +8.7 86 +9 +9 1011.6 1005.9 5
21 10.07 ЮВ 2 20 км н/о +9.5 +8.8 95 +8 +8 1013.8 1008.1
00 11.07 СЗ 1 10 км н/о +11.0 +9.8 92 +11 +11 1015.0 1009.3 +7.8 14
03 11.07 СВ 3 10 км н/о +12.3 +9.6 84 +11 +11 1014.2 1008.6
06 11.07 СВ 2 4000 м н/о +9.7 +9.0 95 +8 +8 1015.0 1009.3 0.2
09 11.07 В 3 20 км н/о +9.1 +8.4 95 +7 +7 1015.1 1009.3
12 11.07 В 4 20 км н/о +8.4 +7.3 93 +5 +5 1014.6 1008.8 +13.1 0.6
15 11.07 В 5 10 км н/о +9.1 +7.3 88 +6 +6 1012.5 1006.8
18 11.07 В 6 10 км н/о +9.0 +7.8 92 +5 +5 1010.2 1004.5 1
21 11.07 В 5 4000 м н/о +9.5 +8.6 94 +6 +6 1008.1 1002.4
00 12.07 СВ 9 4000 м н/о +10.4 +9.5 94 +6 +6 1005.5 999.9 +8.3 11
03 12.07 СВ 6 4000 м н/о +9.6 +9.0 96 +6 +6 1003.8 998.2
06 12.07 З 4 2000 м н/о +10.5 +9.8 95 +8 +8 1006.0 1000.4 16
09 12.07 СВ 2 4000 м н/о +9.3 +9.0 98 +8 +8 1008.0 1002.3
12 12.07 В 1 4000 м н/о +9.3 +9.1 99 +8 +8 1009.8 1004.1 +10.9 5
15 12.07 ЮВ 2 2000 м н/о +9.0 +8.7 98 +7 +7 1010.9 1005.2
18 12.07 В 2 10 км н/о +6.7 +6.4 98 +5 +5 1011.3 1005.5 2
21 12.07 В 3 20 км н/о +9.5 +9.0 97 +7 +7 1012.6 1006.9
00 13.07 СВ 5 10 км н/о +12.7 +10.7 88 +11 +11 1011.8 1006.2 +6.3 23
03 13.07 СВ 5 10 км н/о +12.1 +10.6 91 +10 +10 1008.4 1002.8
06 13.07 СВ 6 4000 м н/о +11.0 +10.4 96 +8 +8 1005.2 999.6 4
09 13.07 С 10 4000 м н/о +13.0 +12.2 95 +10 +10 1002.8 997.3
12 13.07 С 12 4000 м н/о +13.2 +12.7 97 +9 +9 996.7 991.2 +13.9 13
15 13.07 С 11 2000 м н/о +13.1 +12.6 97 +10 +10 991.8 986.3
18 13.07 С 7 2000 м н/о +12.2 +12.0 99 +9 +9 988.9 983.4 28
21 13.07 З 7 10 км н/о +11.4 +10.3 93 +8 +8 988.0 982.5
00 14.07 З 6 10 км н/о +11.5 +9.6 88 +9 +9 989.5 984.0 +10.2 51
03 14.07 З 4 10 км н/о +11.5 +9.3 86 +9 +9 989.1 983.6
06 14.07 ЮЗ 4 10 км н/о +9.3 +7.4 88 +6 +6 990.4 984.9 5
09 14.07 Ю 1 10 км н/о +6.2 +5.8 97 +5 +5 992.9 987.3
12 14.07 С 2 4000 м н/о +6.8 +6.6 99 +5 +5 994.4 988.8 +14.1 1
15 14.07 ЮВ 2 4000 м н/о +5.6 +5.1 97 +3 +3 996.9 991.2
18 14.07 СВ 4 20 км н/о +4.5 +4.3 99 -0 -0 998.5 992.7 3
21 14.07 В 4 20 км н/о +5.1 +4.3 95 +1 +1 1000.4 994.7
00 15.07 В 6 20 км н/о +8.4 +6.1 85 +5 +5 1000.5 994.9 +3.2 14
03 15.07 В 5 20 км н/о +8.6 +5.3 80 +5 +5 997.0 991.4
06 15.07 В 7 4000 м н/о +7.2 +5.8 91 +2 +2 994.3 988.7 4
09 15.07 В 9 4000 м н/о +7.8 +6.7 93 +3 +3 991.0 985.4
12 15.07 В 5 4000 м н/о +7.4 +6.4 93 +3 +3 988.7 983.1 +8.8 28
15 15.07 ЮВ 2 20 км н/о +6.6 +5.9 95 +5 +5 987.0 981.4
18 15.07 В 3 10 км н/о +7.1 +6.5 96 +4 +4 986.7 981.2 3
21 15.07 ЮВ 2 20 км н/о +7.2 +6.7 97 +5 +5 987.4 981.9
00 16.07 В 4 20 км н/о +8.6 +8.2 97 +5 +5 987.6 982.1 +6.3 41
03 16.07 ЮЗ 5 20 км н/о +10.7 +8.4 86 +8 +8 987.9 982.4
06 16.07 З 1 10 км н/о +7.7 +5.2 84 +8 +8 988.3 982.8 2
09 16.07 В 3 20 км н/о +6.8 +6.2 96 +4 +4 987.6 982.0
12 16.07 В 5 20 км н/о +7.2 +5.5 89 +3 +3 985.6 980.1 +11.1 7
15 16.07 В 6 20 км н/о +7.0 +5.5 90 +3 +3 984.7 979.2
18 16.07 ЮВ 2 20 км н/о +6.7 +5.5 92 +5 +5 985.8 980.3 1
21 16.07 В 3 10 км н/о +6.8 +6.5 98 +4 +4 987.9 982.3
00 17.07 ЮЗ 1 4000 м н/о +7.2 +6.2 93 +6 +6 989.4 983.8 +5.3 16
03 17.07 ЮЗ 3 10 км н/о +8.3 +4.9 79 +6 +6 990.9 985.4
06 17.07 ЮЗ 2 10 км н/о +7.3 +4.9 85 +6 +6 994.3 988.7
09 17.07 В 3 10 км н/о +3.6 +3.3 98 -0 -0 997.5 991.7

 

Местоположение метеостанции Хокитика (Новая Зеландия): широта -42.71 долгота 170.98 высота над уровнем моря 40 м.

В архиве по умолчанию представлена погода в Хокитике за последнюю неделю. Архивные данные за месяц целиком и за предыдущие месяцы, начиная с января 2011 года, Вы можете получить, выбрав интересующий диапазон дат из раскрывающегося списка и нажав кнопку "Ввод!".


*Определитесь, кто Вы:
робот инопланетянин человек

Внимание! Время в таблицах - всемирное. Для получения местного времени необходимо прибавить поправку, которая равна 12 ч.

Смотрите также архив погоды в соседних городах и на ближайших метеорологических станциях:

Погода в Вестпорте (Новая Зеландия) (119 км)
Погода в Крайстчерче (Новая Зеландия) (151 км)
Погода в Тимару (Новая Зеландия) (178 км)
Погода в Хаасте (Новая Зеландия) (205 км)
Погода в Тара Хилс (Новая Зеландия) (221 км)
Погода в Кайкуре (Новая Зеландия) (225 км)
Погода в Нельсоне (Новая Зеландия) (245 км)
Погода на Мысе Кэмпбелл (Новая Зеландия) (287 км)
Погода на Косе Farewell (Новая Зеландия) (293 км)
Погода в Квинстауне (Новая Зеландия) (313 км)

Пояснения к столбцам:

Ветер - указаны скорость ветра в м/с - средняя за 10 мин, порывы в срок и между сроками (в фигурных скобках) и направление, откуда дует ветер: С - северный, СВ - северо-восточный, В - восточный, ЮВ - юго-восточный, Ю - южный, ЮЗ - юго-западный, З - западный, СЗ - северо-западный.
Видимость - горизонтальная дальность видимости в метрах или километрах. При видимости от 1 до 10 км при отсутствии осадков обычно наблюдается дымка, при ухудшении видимости до 1 км и менее - туман. В сухую погоду видимость может ухудшаться дымом, пылью или мглою.
Явления - указаны атмосферные явления, наблюдавшиеся в срок или в последний час перед сроком; фигурными скобками обозначены явления, наблюдавшиеся между сроками (за 1-3 часа до срока); квадратными скобками обозначены град или гололедные отложения с указанием их диаметра в мм.
Облачность - указаны через наклонную черту общая и нижняя облачность в баллах и высота нижней границы облаков в метрах; квадратными скобками обозначены формы облаков: Ci - перистые, Cs - перисто-слоистые, Cc - перисто-кучевые, Ac - высококучевые, As - высокослоистые, Sc - слоисто-кучевые, Ns - слоисто-дождевые, Cu - кучевые, Cb - кучево-дождевые. Подробнее классификацию облаков см. в Атласе облаков (PDF).
T - Температура воздуха - температура, измеренная на высоте 2 м над землей.
Td - Температура точки росы - температура, при понижении до которой содержащийся в воздухе водяной пар достигнет насыщения.
f - Относительная влажность воздуха - влажноcть воздуха, измеренная на высоте 2 м над землей.
Te - Эффективная температура - температура, которую ощущает одетый по сезону человек в тени. Характеристика душности погоды. При расчете учитывается влияние влажности воздуха и скорости ветра на теплоощущения человека.
Tes - Эффективная температура на солнце - температура, которую ощущает человек, с поправкой на солнечный нагрев. Характеристика знойности погоды. Зависит от высоты солнца над горизонтом, облачности и скорости ветра. Ночью, в пасмурную погоду, а также при ветре 12 м/с и более поправка равна нулю.
P - Атмосферное давление - приведенное к уровню моря атмосферное давление.
Po - Атмосферное давление - измеренное на уровне метеостанции атмосферное давление.
Tmin - Минимальная температура - минимум температуры воздуха на высоте 2 м над землей.
Tmax - Максимальная температура - максимум температуры воздуха на высоте 2 м над землей.
R - Количество осадков - Количество выпавших осадков за период времени, мм. При наведении курсора мыши на число - период времени, за который выпало указанное количество осадков.
R24 - Количество осадков - Количество выпавших осадков за 24 часа, мм.
S - Снежный покров - Высота снежного покрова, см. При наведении курсора мыши на число - состояние снежного покрова и степень покрытия местности в баллах.